RH
87 84 80 76 66 57 45 36 40 44 42 43 41 36 34 27 27 30 26 23 28 35 36 37 56 66 80 100 98 91 88 82 77 100 90 88 78 76 94 93 77 47 52 68
32 30 30 30 31 30 28 30 30 29 29 31 29 27 27 27 30 27 24 21 23 23 22 23 29 33 80 90 72 89 95 96 100 84 78 77 86 92 82 81 73 55 55 72
26 26 25 24 23 22 22 22 22 21 21 22 23 23 23 23 24 24 23 22 22 22 22 23 21 23 28 36 68 95 77 66 70 86 100 100 100 96 88 73 61 68 51 71
25 22 22 22 20 19 20 21 20 22 24 23 23 23 24 24 22 22 23 22 22 22 23 23 21 22 21 23 29 33 54 81 83 58 60 78 79 91 100 97 68 52 68 66
20 18 18 19 18 18 18 19 18 19 21 22 23 22 21 20 21 21 23 20 21 20 20 19 21 20 21 22 21 23 24 26 33 34 39 52 53 53 57 74 82 72 70 59
16 18 20 20 18 18 16 16 16 16 16 16 16 17 17 15 15 16 17 17 17 19 18 16 16 16 18 19 20 21 23 20 21 18 24 27 25 46 48 46 49 55 58 92
19 20 20 18 17 15 13 12 11 11 12 11 10 11 12 12 12 12 12 12 13 15 16 16 16 15 16 17 18 19 18 20 21 18 20 17 19 25 22 27 42 44 39 53
19 18 16 15 13 11 11 10 8 8 8 7 7 7 7 7 8 9 10 10 9 10 11 12 13 13 14 15 17 18 18 20 20 20 16 16 16 17 17 19 23 24 27 27
15 13 11 11 9 7 6 6 5 5 6 6 6 7 7 6 6 6 6 6 5 6 7 8 10 12 13 12 13 15 16 16 18 16 16 15 16 16 16 16 18 19 21 21
11 10 8 6 5 5 6 7 8 8 7 6 7 7 7 7 7 7 6 7 7 7 7 7 6 7 8 8 10 12 12 14 12 13 14 15 14 17 16 15 14 16 18 19
8 6 5 5 6 7 8 8 7 7 6 6 7 6 6 6 6 6 6 6 6 6 7 6 6 7 8 8 9 9 8 9 11 12 13 13 11 12 14 12 14 14 16 17
5 5 6 8 8 8 7 7 7 6 6 6 6 6 5 6 6 5 4 4 3 3 4 4 4 5 6 7 8 8 9 9 7 8 8 9 10 11 12 12 12 13 15 16
6 8 9 8 8 7 7 6 6 5 5 6 6 6 5 4 4 3 3 4 4 3 3 3 4 4 4 4 4 6 8 8 9 9 8 7 7 7 8 11 13 13 13 15
9 9 8 8 8 7 6 5 6 6 6 5 5 4 4 4 3 3 4 4 3 3 3 3 3 3 4 3 3 3 4 4 5 6 8 8 8 7 7 7 9 12 14 16
10 9 8 8 7 6 5 6 6 6 6 4 4 4 4 4 4 4 4 4 4 4 4 3 4 4 4 4 4 4 4 4 4 4 4 5 6 7 8 7 8 10 12 14
10 9 8 7 6 6 6 6 6 5 4 4 5 5 4 4 4 4 4 4 4 4 4 4 4 4 4 4 4 4 4 4 4 4 4 4 4 5 6 7 8 9 11 12
10 9 8 7 6 6 6 6 5 5 5 5 5 5 4 5 5 5 5 5 5 5 4 4 4 4 4 4 4 4 4 4 3 3 4 4 4 4 5 7 8 9 11 12
12 10 8 7 7 8 7 6 6 6 6 6 6 5 5 6 7 7 7 6 6 7 7 6 6 6 5 5 5 5 5 4 4 4 4 4 4 4 5 6 7 9 12 12
12 10 9 8 8 9 7 6 6 7 7 7 7 6 6 6 8 9 9 9 9 9 9 9 9 9 8 8 7 6 6 6 5 5 4 4 5 5 5 6 7 9 13 14
13 12 10 8 8 10 10 7 7 8 8 8 8 8 7 7 8 10 11 11 11 9 10 10 9 9 9 9 9 8 8 7 7 6 6 6 6 6 6 6 7 7 10 13
14 14 15 11 9 10 10 9 8 8 9 9 9 9 8 8 8 9 9 10 12 11 10 10 10 9 9 8 8 9 9 9 8 8 8 7 7 7 8 8 7 7 9 11
14 16 16 12 9 9 10 12 9 9 10 11 11 10 10 9 10 10 11 11 12 11 12 11 10 11 11 11 10 10 9 9 9 9 8 8 8 9 9 9 9 9 8 11
10 10 12 14 14 11 8 9 13 10 10 11 12 12 12 11 10 10 10 11 11 12 11 12 12 12 13 13 12 10 10 9 9 9 9 9 9 9 9 10 9 10 11 12
13 13 14 16 19 20 16 12 12 14 12 10 11 12 12 12 12 12 11 11 11 11 11 12 13 13 12 13 12 11 10 10 9 8 8 9 9 9 9 9 10 10 11 12
15 15 15 13 12 13 16 16 13 11 14 14 12 12 13 13 13 13 13 12 12 12 12 12 13 13 13 14 14 13 12 10 10 9 9 8 8 8 9 9 9 10 11 12
14 15 14 14 16 17 18 18 19 17 12 13 15 14 11 12 14 13 13 13 13 13 13 13 12 12 11 11 11 12 12 12 11 10 10 10 9 9 9 9 9 9 9 10
13 13 14 15 14 14 14 14 15 15 15 15 13 14 14 14 12 12 13 13 13 13 14 15 15 13 11 10 10 10 10 10 10 11 11 10 10 9 9 9 10 10 10 10
Wind_Speed
81 84 86 87 89 91 94 96 98 99 101 102 103 101 102 99 97 98 96 94 92 94 94 92 86 85 86 85 86 89 89 88 88 87 92 91 88 84 80 75 73 68 61 56
90 91 91 94 94 96 97 99 101 104 106 107 108 107 106 108 107 107 104 102 100 101 99 100 93 93 96 96 90 91 92 88 89 87 85 85 83 81 81 79 77 67 63 60
95 99 101 101 103 102 104 106 108 110 112 115 115 115 113 113 111 112 112 109 108 107 105 105 100 97 101 100 100 103 101 93 90 88 89 90 84 82 82 82 75 71 61 62
101 104 105 106 106 107 105 107 107 104 108 110 111 112 109 109 110 112 111 111 115 114 112 112 111 108 106 101 103 106 108 104 105 99 97 97 92 88 86 87 83 76 65 65
108 107 107 107 107 107 105 103 100 100 101 104 107 109 106 106 108 107 108 110 110 111 111 111 111 108 110 108 105 110 111 110 112 110 107 108 106 100 94 90 86 80 73 68
108 105 104 106 104 102 101 99 98 97 99 100 103 105 106 104 105 106 105 109 108 110 112 109 107 107 107 108 109 111 114 114 114 108 106 112 111 100 107 100 95 94 87 84
104 104 104 102 100 101 100 99 98 97 98 99 98 97 99 101 103 102 104 105 106 106 108 110 109 106 106 107 109 112 111 115 119 111 108 113 99 105 108 103 102 103 91 89
104 104 101 99 100 99 98 96 92 91 89 90 91 89 90 93 94 95 96 100 100 102 104 107 109 108 107 105 107 110 107 111 114 116 104 106 102 104 104 102 104 101 98 91
103 101 97 96 95 90 86 81 78 76 74 76 76 77 77 79 79 80 80 84 88 90 95 99 102 104 108 105 106 107 112 110 112 107 108 104 96 101 100 99 100 97 98 95
98 95 91 85 81 77 72 70 68 68 68 69 71 71 72 71 71 71 72 72 76 78 82 85 87 88 95 98 101 104 106 110 107 109 111 108 100 103 99 97 92 93 92 92
90 85 79 73 69 66 63 65 64 64 65 64 64 64 64 65 64 65 67 67 70 72 74 76 79 78 80 84 88 90 96 99 102 105 108 107 98 95 102 93 90 86 87 87
77 73 68 63 62 60 59 58 61 61 59 57 58 61 61 61 61 60 59 60 63 64 66 68 70 72 73 77 81 81 84 87 88 93 98 99 97 94 95 93 87 84 84 83
66 63 60 58 58 58 57 57 58 56 54 52 54 56 55 55 53 52 51 53 54 55 57 59 60 62 64 68 69 74 77 80 82 83 85 85 87 89 88 89 89 86 83 85
60 57 56 56 57 58 57 54 51 52 53 50 48 48 47 47 46 44 44 45 47 48 50 51 53 55 57 60 63 66 68 71 73 76 78 78 79 77 76 77 81 85 87 87
55 54 55 56 55 54 50 48 48 49 48 45 42 42 40 39 39 38 37 38 39 40 43 44 46 47 50 51 54 57 60 60 63 65 69 71 71 73 71 70 74 80 81 83
51 52 53 54 51 45 44 43 44 42 41 37 36 36 35 33 32 32 32 32 34 35 37 38 39 40 42 43 46 50 52 53 54 58 60 64 65 66 67 65 66 69 75 79
48 49 50 49 46 42 40 38 37 36 35 33 32 33 30 27 27 26 26 27 28 29 30 32 32 34 36 37 39 43 46 47 48 52 55 58 59 61 62 62 64 65 69 76
45 45 46 43 39 38 37 35 33 32 31 30 30 29 27 24 23 23 23 23 22 23 25 26 27 28 30 32 34 36 39 41 43 45 48 51 53 56 57 58 60 62 65 70
42 42 42 39 35 34 32 30 28 27 27 27 26 25 24 24 21 20 19 19 20 20 21 23 24 26 28 29 31 33 35 36 38 40 42 45 48 50 52 55 57 62 64 68
39 39 39 37 34 32 31 29 26 26 25 25 24 23 22 23 22 20 19 20 20 20 21 23 25 25 26 28 29 31 32 34 34 36 38 40 42 45 49 51 55 59 62 64
39 37 39 37 33 28 27 25 24 24 23 22 21 21 21 20 19 20 21 20 20 20 20 21 23 24 24 25 27 29 30 30 32 34 35 38 40 42 45 47 53 55 56 59
37 35 33 33 31 28 26 24 22 21 20 20 20 19 19 18 17 18 18 18 20 20 20 21 22 23 23 23 24 25 26 27 29 31 33 35 37 40 43 45 48 50 52 56
43 34 32 34 33 32 29 25 23 21 20 19 19 18 18 18 17 17 18 18 18 19 20 20 21 21 21 22 23 23 24 24 26 29 31 33 35 37 40 43 46 46 47 52
44 42 40 36 33 34 34 31 28 25 22 20 20 18 18 17 16 16 17 18 18 18 19 19 20 20 21 22 23 23 24 24 25 27 29 31 33 35 38 40 42 43 46 48
41 40 39 38 34 28 26 27 27 25 24 21 18 18 17 16 16 16 16 16 16 17 18 19 20 21 22 22 22 23 23 24 24 26 27 29 30 33 35 37 39 41 44 47
40 39 38 36 33 32 32 29 27 27 26 23 20 17 15 15 15 15 15 15 16 16 17 18 18 19 20 21 21 22 23 24 25 25 26 27 29 30 32 34 37 39 41 44
40 37 36 35 34 31 29 28 27 25 23 23 22 20 18 16 14 14 15 15 16 16 16 16 17 18 19 20 20 21 22 23 24 25 26 27 28 30 31 32 34 37 40 42
Wind_Direction
280 281 280 280 280 280 281 281 280 278 275 275 275 276 274 276 274 272 272 270 268 266 265 264 261 260 261 260 261 261 261 260 260 258 258 260 260 262 262 262 261 261 263 262
285 284 282 282 280 280 279 276 276 277 275 274 274 273 273 272 270 269 269 268 267 265 265 264 263 261 260 260 259 258 258 259 260 262 263 261 259 258 259 259 262 264 260 258
287 286 285 285 283 282 279 276 276 275 274 274 274 272 271 269 269 267 267 266 265 263 264 264 262 260 259 259 259 259 258 256 258 258 259 260 262 262 261 261 262 262 261 256
288 288 287 286 285 283 282 279 276 272 274 273 272 272 270 270 269 268 266 264 264 264 263 262 261 259 258 256 257 258 259 259 259 259 259 258 257 257 260 261 264 263 257 253
292 291 289 289 286 285 282 280 277 276 273 272 271 272 270 269 267 266 265 263 263 263 262 261 260 260 259 258 256 257 259 258 259 259 259 258 258 257 256 257 259 259 254 251
293 292 292 290 287 286 285 282 280 278 276 274 272 271 271 269 268 267 265 264 264 262 262 262 262 261 259 258 257 256 256 258 257 257 257 257 257 260 260 257 255 255 255 254
295 294 293 292 290 289 287 284 283 281 279 277 275 272 271 269 268 266 265 264 263 262 263 263 262 262 260 259 259 258 257 256 257 257 254 256 259 256 257 260 260 258 256 256
297 295 294 292 290 290 288 287 285 282 279 277 275 273 271 269 266 265 263 263 263 261 260 260 260 260 261 259 258 258 258 256 257 258 256 256 254 256 257 256 256 259 261 259
297 296 295 294 293 291 290 288 285 283 280 277 276 274 272 270 269 267 264 262 262 260 259 258 257 256 257 256 256 255 256 256 257 257 258 257 256 257 255 253 253 253 256 257
299 298 297 296 295 293 291 289 287 285 283 280 278 276 274 272 270 268 266 264 261 259 259 257 256 255 254 254 253 253 253 252 252 253 254 253 250 252 254 253 250 251 252 253
300 299 299 297 295 294 293 291 288 285 283 281 279 277 275 273 271 268 267 264 262 260 258 257 256 255 253 253 252 250 251 251 252 251 252 253 251 250 251 250 251 251 250 251
302 300 300 298 297 297 295 293 289 287 284 282 281 279 277 275 273 270 268 265 263 261 259 257 256 254 253 252 251 250 250 250 249 249 251 251 251 248 248 249 248 247 249 249
303 302 301 301 301 301 299 295 292 289 286 284 282 280 279 276 274 272 269 266 264 261 259 257 256 254 252 252 251 249 247 248 247 248 249 249 249 248 245 245 246 244 243 245
306 305 305 305 305 304 301 297 294 291 289 288 285 281 277 276 273 270 268 265 262 259 258 256 255 253 252 251 250 249 247 247 247 247 248 247 247 248 246 243 241 241 239 240
309 310 310 309 307 305 301 298 294 292 291 289 286 282 280 276 274 272 267 264 261 259 258 257 255 254 252 252 251 250 249 247 248 246 246 247 246 245 243 239 235 236 237 237
313 312 312 311 309 305 301 298 297 294 292 291 287 283 281 278 274 272 269 265 262 260 259 258 256 254 252 250 249 248 247 246 244 245 245 244 244 242 240 237 235 233 235 235
316 316 316 314 311 309 307 305 302 299 296 293 288 286 285 281 278 276 272 268 266 263 261 259 258 255 253 251 248 248 248 247 243 242 242 242 242 241 240 235 232 231 231 231
318 319 320 317 314 312 311 309 306 302 298 294 291 290 288 282 278 275 272 270 269 268 266 263 259 257 253 251 248 247 246 245 242 241 241 241 240 240 239 236 231 229 229 230
320 324 326 323 319 318 317 314 310 307 302 298 294 291 287 281 278 276 277 280 276 270 265 262 258 255 253 251 248 247 245 243 242 240 238 239 238 237 237 234 232 229 228 230
324 326 329 330 326 325 324 321 319 315 309 303 298 293 289 285 280 278 274 273 273 270 265 261 257 253 249 248 248 247 246 245 242 239 238 236 235 235 235 234 235 231 229 229
328 329 331 330 327 325 328 327 323 319 313 308 302 297 291 287 284 278 276 275 271 271 269 265 263 260 256 252 249 248 247 246 245 242 239 236 233 232 231 232 233 233 230 229
332 326 324 332 338 335 333 334 331 326 322 316 310 302 294 289 284 279 276 273 271 271 268 267 265 263 260 257 254 251 248 245 243 243 242 237 234 232 232 230 231 233 231 229
335 333 333 336 338 336 338 339 340 336 331 328 320 312 303 294 286 278 272 269 268 268 269 270 268 265 261 259 257 255 252 249 245 242 240 238 236 233 231 232 231 229 230 231
334 336 334 333 332 335 338 338 335 335 336 331 325 318 310 304 294 284 277 270 267 266 264 265 265 265 262 260 257 255 253 249 246 243 241 239 238 236 234 233 232 230 227 227
335 332 330 330 331 329 329 331 331 330 330 331 325 319 313 307 299 294 286 278 272 268 266 263 260 259 258 256 254 252 251 251 249 247 244 241 239 237 237 237 235 231 230 229
336 333 332 329 327 326 326 327 329 326 323 323 322 321 315 311 305 297 291 287 281 274 268 263 260 260 258 257 256 254 250 248 248 246 244 245 245 241 237 235 236 237 234 231
335 333 329 327 326 324 322 321 320 322 321 318 316 317 314 313 307 301 297 290 281 276 272 268 264 259 257 256 254 253 252 250 247 246 244 243 243 243 243 241 237 235 235 235